GW0029 Weather Reports


Display with metric or nautical units.
time (UTC)temp
F
wind
direction
speed
MPH
gust
MPH
rain 1hr
in
rain 24hr
in
rain mn
in
humidity
%
barometer
mb
20260906205004 58 181 0.0 1.0 0.00 0.26 0.26 87 1020.0
20260906204504 58 171 0.0 3.0 0.00 0.26 0.26 86 1020.0
20260906204004 58 208 0.0 3.0 0.00 0.26 0.26 86 1019.0
20260906203504 58 275 0.0 3.0 0.00 0.26 0.26 86 1019.0
20260906202505 58 0 0.0 0.0 0.00 0.26 0.26 86 1020.0
20260906202003 58 0 0.0 0.0 0.00 0.26 0.26 86 1020.0
20260906201504 58 0 0.0 0.0 0.00 0.26 0.26 86 1020.0
20260906201004 58 0 0.0 0.0 0.00 0.26 0.26 86 1020.0
20260906200504 58 0 0.0 0.0 0.00 0.26 0.26 85 1020.0
20260906200003 58 0 0.0 0.0 0.00 0.26 0.26 85 1020.0
20260906195504 58 0 0.0 0.0 0.00 0.26 0.26 85 1020.0
20260906194505 58 203 0.0 1.0 0.00 0.26 0.26 84 1020.0
20260906194003 58 250 0.0 3.0 0.00 0.26 0.26 84 1020.0
20260906193504 58 260 0.0 3.0 0.00 0.26 0.26 84 1020.0
20260906193003 58 203 0.0 5.0 0.00 0.26 0.26 84 1020.0
20260906192504 58 209 0.0 5.0 0.00 0.26 0.26 83 1020.0
20260906192003 58 225 0.0 2.0 0.00 0.26 0.26 83 1020.0
20260906191504 58 0 0.0 0.0 0.00 0.26 0.26 83 1020.0
20260906191004 59 0 0.0 0.0 0.00 0.26 0.26 84 1020.0
20260906190504 59 259 0.0 4.0 0.00 0.26 0.26 84 1020.0
20260906185504 58 273 1.0 5.0 0.00 0.26 0.26 84 1020.0
20260906185004 58 253 1.0 5.0 0.00 0.26 0.26 84 1020.0
20260906184504 58 240 0.0 5.0 0.00 0.26 0.26 84 1020.0
20260906183505 58 267 0.0 2.0 0.00 0.26 0.26 82 1021.0
20260906183003 58 221 0.0 3.0 0.00 0.26 0.26 82 1021.0
20260906182504 58 221 0.0 3.0 0.00 0.26 0.26 83 1020.0
20260906181504 58 242 0.0 2.0 0.00 0.26 0.26 81 1020.0
20260906181004 58 0 0.0 0.0 0.00 0.26 0.26 81 1020.0
20260906180504 58 0 0.0 0.0 0.00 0.26 0.26 81 1020.0
20260906180004 58 0 0.0 0.0 0.00 0.26 0.26 81 1020.0
20260906175505 58 314 0.0 1.0 0.00 0.26 0.26 80 1020.0
20260906175004 58 244 0.0 4.0 0.00 0.26 0.26 80 1020.0
20260906174504 58 223 0.0 4.0 0.00 0.26 0.26 80 1020.0
20260906174004 59 233 0.0 2.0 0.00 0.26 0.26 79 1021.0
20260906173004 59 259 0.0 4.0 0.00 0.26 0.26 78 1021.0
20260906172505 59 269 0.0 4.0 0.00 0.26 0.26 77 1020.0
20260906172004 59 263 1.0 5.0 0.00 0.26 0.26 77 1020.0
20260906170505 60 265 2.0 9.0 0.00 0.26 0.26 75 1021.0
20260906170003 60 271 4.0 9.0 0.00 0.26 0.26 74 1021.0
20260906165505 60 259 4.0 13.0 0.00 0.26 0.26 74 1021.0
20260906165003 60 254 5.0 13.0 0.00 0.26 0.26 74 1021.0
20260906164003 61 277 4.0 10.0 0.00 0.26 0.26 73 1020.0
20260906163505 61 274 4.0 10.0 0.00 0.26 0.26 73 1020.0
20260906163004 61 273 4.0 11.0 0.00 0.26 0.26 72 1020.0
20260906162504 61 271 6.0 14.0 0.00 0.26 0.26 72 1020.0
20260906162003 61 273 6.0 14.0 0.00 0.26 0.26 72 1020.0
20260906161505 61 278 4.0 9.0 0.00 0.26 0.26 72 1020.0
20260906161003 61 276 5.0 10.0 0.00 0.26 0.26 71 1020.0
20260906160505 61 271 7.0 15.0 0.00 0.26 0.26 70 1020.0
20260906160003 62 266 7.0 15.0 0.00 0.26 0.26 70 1020.0
20260906155505 62 271 6.0 12.0 0.00 0.26 0.26 70 1020.0
20260906155003 61 279 6.0 12.0 0.00 0.26 0.26 70 1020.0
20260906154505 61 269 6.0 17.0 0.00 0.26 0.26 70 1020.0
20260906152504 62 271 8.0 16.0 0.00 0.26 0.26 67 1020.0
20260906152003 62 279 8.0 14.0 0.00 0.26 0.26 69 1020.0
20260906151505 62 274 9.0 19.0 0.00 0.26 0.26 68 1020.0
20260906151003 62 270 9.0 19.0 0.00 0.26 0.26 68 1020.0
20260906150504 62 262 7.0 15.0 0.00 0.26 0.26 68 1020.0
20260906150004 62 263 9.0 15.0 0.00 0.26 0.26 66 1020.0
20260906145504 62 269 9.0 15.0 0.00 0.26 0.26 66 1020.0
20260906145004 63 272 9.0 15.0 0.00 0.26 0.26 65 1020.0
20260906144504 63 275 8.0 14.0 0.00 0.26 0.26 65 1020.0
20260906144003 63 273 7.0 14.0 0.00 0.26 0.26 67 1020.0
20260906143505 63 277 7.0 17.0 0.00 0.26 0.26 69 1020.0
20260906142505 63 270 8.0 21.0 0.00 0.26 0.26 68 1020.0
20260906142003 63 264 7.0 14.0 0.00 0.26 0.26 71 1020.0
20260906141504 63 270 9.0 15.0 0.00 0.26 0.26 71 1020.0
20260906141004 63 270 10.0 17.0 0.00 0.26 0.26 70 1019.0
20260906140505 64 270 9.0 17.0 0.00 0.26 0.26 68 1019.0
20260906140003 64 267 8.0 17.0 0.00 0.26 0.26 71 1019.0
20260906135505 64 258 7.0 17.0 0.00 0.26 0.26 69 1019.0
20260906135004 64 274 5.0 13.0 0.00 0.26 0.26 71 1019.0
20260906134504 64 289 6.0 13.0 0.00 0.26 0.26 70 1019.0
20260906133505 64 260 9.0 18.0 0.00 0.26 0.26 68 1020.0
20260906133003 64 261 9.0 18.0 0.00 0.26 0.26 67 1020.0
20260906131504 64 263 8.0 15.0 0.00 0.26 0.26 68 1020.0
20260906131004 64 270 7.0 15.0 0.00 0.26 0.26 67 1020.0
20260906130504 64 285 7.0 14.0 0.00 0.26 0.26 66 1020.0
20260906130004 64 290 6.0 14.0 0.00 0.26 0.26 68 1020.0
20260906125003 65 275 7.0 15.0 0.00 0.26 0.26 66 1020.0
20260906124505 65 278 9.0 19.0 0.00 0.26 0.26 66 1020.0
20260906124003 65 278 10.0 19.0 0.00 0.26 0.26 64 1020.0
20260906123506 64 273 10.0 17.0 0.00 0.26 0.26 66 1020.0
20260906123003 64 273 9.0 15.0 0.00 0.26 0.26 67 1020.0
20260906122505 64 266 8.0 15.0 0.00 0.26 0.26 70 1020.0
20260906122003 64 268 6.0 15.0 0.00 0.26 0.26 70 1020.0
20260906121505 64 274 7.0 15.0 0.00 0.26 0.26 71 1020.0
20260906121003 63 267 8.0 15.0 0.00 0.26 0.26 70 1020.0
20260906120505 64 269 8.0 14.0 0.00 0.26 0.26 70 1020.0
20260906120004 64 269 7.0 16.0 0.00 0.26 0.26 70 1020.0
20260906115504 64 270 7.0 16.0 0.00 0.26 0.26 70 1020.0
20260906115004 64 270 8.0 17.0 0.00 0.26 0.26 68 1020.0
20260906114504 65 269 8.0 17.0 0.00 0.26 0.26 68 1020.0
20260906113504 65 270 8.0 16.0 0.00 0.26 0.26 67 1019.0
20260906113004 66 270 6.0 12.0 0.00 0.26 0.26 68 1019.0
20260906112504 65 277 5.0 14.0 0.00 0.26 0.26 70 1019.0
20260906111504 65 253 7.0 15.0 0.00 0.26 0.26 70 1019.0
20260906111003 65 268 6.0 13.0 0.00 0.26 0.26 71 1019.0
20260906110505 65 265 8.0 14.0 0.00 0.26 0.26 70 1019.0
20260906110003 65 269 7.0 14.0 0.00 0.26 0.26 70 1019.0
20260906105505 65 273 4.0 10.0 0.00 0.26 0.26 69 1019.0
20260906105003 65 272 5.0 13.0 0.00 0.26 0.26 71 1019.0
20260906104504 65 262 6.0 13.0 0.00 0.26 0.26 71 1019.0
20260906103504 65 292 4.0 11.0 0.00 0.00 0.00 73 1019.0
20260906103004 65 259 4.0 14.0 0.00 0.00 0.00 74 1019.0
20260906102504 65 273 4.0 14.0 0.00 0.00 0.00 72 1019.0
20260906101003 64 278 6.0 13.0 0.00 0.00 0.00 75 1018.0
20260906100505 63 275 6.0 13.0 0.00 0.00 0.00 76 1018.0
20260906095504 63 274 7.0 12.0 0.00 0.00 0.00 74 1018.0
20260906095004 63 269 5.0 12.0 0.00 0.00 0.00 74 1018.0
20260906094504 64 270 5.0 11.0 0.00 0.00 0.00 75 1018.0
20260906094004 63 280 5.0 11.0 0.00 0.00 0.00 76 1017.0
20260906093504 63 289 5.0 10.0 0.00 0.00 0.00 76 1017.0
20260906093004 63 283 5.0 10.0 0.00 0.00 0.00 76 1017.0
20260906092003 62 262 6.0 12.0 0.00 0.00 0.00 78 1018.0
20260906091504 62 256 6.0 12.0 0.00 0.00 0.00 77 1018.0
20260906091003 63 260 7.0 12.0 0.00 0.00 0.00 76 1018.0
20260906090504 63 270 7.0 12.0 0.00 0.00 0.00 77 1018.0
20260906090004 63 279 5.0 10.0 0.00 0.00 0.00 78 1018.0
20260906085504 63 279 4.0 10.0 0.00 0.00 0.00 79 1018.0
20260906085004 62 270 6.0 12.0 0.00 0.00 0.00 79 1018.0
20260906084504 62 269 8.0 12.0 0.00 0.00 0.00 80 1018.0
20260906084003 62 270 6.0 12.0 0.00 0.00 0.00 80 1018.0
20260906083505 62 282 5.0 12.0 0.00 0.00 0.00 81 1018.0
20260906083003 62 306 6.0 12.0 0.00 0.00 0.00 80 1018.0
20260906082504 62 294 5.0 10.0 0.00 0.00 0.00 80 1018.0
20260906082004 62 269 4.0 11.0 0.00 0.00 0.00 81 1018.0
20260906081504 62 272 6.0 14.0 0.00 0.00 0.00 82 1018.0
20260906081004 62 270 7.0 14.0 0.00 0.00 0.00 81 1018.0
20260906080504 62 265 6.0 13.0 0.00 0.00 0.00 82 1018.0
20260906080005 62 273 6.0 12.0 0.00 0.00 0.00 82 1018.0
20260906075505 61 275 6.0 12.0 0.00 0.00 0.00 83 1017.0
20260906075003 61 275 6.0 11.0 0.00 0.00 0.00 83 1017.0
20260906074505 61 279 6.0 10.0 0.00 0.00 0.00 83 1017.0
20260906073504 61 283 7.0 17.0 0.00 0.00 0.00 84 1016.0
20260906073003 61 274 7.0 14.0 0.00 0.00 0.00 84 1016.0
20260906072504 60 270 7.0 14.0 0.00 0.00 0.00 85 1016.0
20260906072004 60 266 6.0 13.0 0.00 0.00 0.00 85 1016.0
20260906070505 60 270 6.0 12.0 0.00 0.00 0.00 86 1016.0
20260906070004 60 269 6.0 12.0 0.00 0.00 0.00 86 1016.0
20260906065505 60 275 5.0 11.0 0.00 0.00 0.00 86 1016.0
20260906065004 60 276 5.0 10.0 0.00 0.00 0.00 86 1016.0
20260906064505 60 284 5.0 10.0 0.00 0.00 0.00 86 1016.0
20260906064003 60 281 5.0 10.0 0.00 0.00 0.00 87 1015.0
20260906063504 60 270 4.0 10.0 0.00 0.00 0.00 87 1015.0
20260906063003 59 276 4.0 10.0 0.00 0.00 0.00 88 1015.0
20260906062004 59 270 5.0 11.0 0.00 0.00 0.00 88 1016.0
20260906061504 59 275 5.0 11.0 0.00 0.00 0.00 88 1016.0
20260906060505 58 273 3.0 10.0 0.00 0.00 0.00 89 1016.0
20260906060004 58 276 4.0 9.0 0.00 0.00 0.00 89 1016.0
20260906055504 58 259 4.0 9.0 0.00 0.00 0.00 89 1016.0
20260906055003 58 258 4.0 8.0 0.00 0.00 0.00 89 1016.0
20260906054505 58 264 5.0 10.0 0.00 0.00 0.00 89 1016.0
20260906054004 58 259 4.0 11.0 0.00 0.00 0.00 90 1015.0
20260906053505 58 267 4.0 11.0 0.00 0.00 0.00 90 1015.0
20260906052504 57 270 5.0 10.0 0.00 0.00 0.00 90 1015.0
20260906052004 57 270 5.0 10.0 0.00 0.00 0.00 90 1015.0
20260906051505 57 269 5.0 12.0 0.00 0.00 0.00 90 1015.0
20260906050505 57 273 5.0 12.0 0.00 0.00 0.00 91 1015.0
20260906050004 57 270 5.0 10.0 0.00 0.00 0.00 91 1015.0
20260906045504 57 261 5.0 10.0 0.00 0.00 0.00 91 1015.0
20260906045003 57 268 5.0 10.0 0.00 0.00 0.00 90 1015.0
20260906044505 57 270 6.0 10.0 0.00 0.00 0.00 90 1015.0
20260906044004 57 272 4.0 10.0 0.00 0.00 0.00 91 1014.0
20260906043504 57 266 4.0 10.0 0.00 0.00 0.00 90 1014.0
20260906042504 57 254 6.0 14.0 0.00 0.00 0.00 90 1014.0
20260906042004 57 264 6.0 11.0 0.00 0.00 0.00 90 1014.0
20260906041504 57 264 5.0 11.0 0.00 0.00 0.00 90 1014.0
20260906041004 57 261 4.0 10.0 0.00 0.00 0.00 90 1013.0
20260906035004 57 274 7.0 13.0 0.00 0.00 0.00 90 1014.0
20260906034505 57 266 7.0 13.0 0.00 0.00 0.00 90 1014.0
20260906034004 58 253 6.0 12.0 0.00 0.00 0.00 90 1015.0
20260906033504 58 247 5.0 9.0 0.00 0.00 0.00 90 1015.0
20260906033003 58 256 5.0 10.0 0.00 0.00 0.00 90 1015.0
20260906032504 58 257 6.0 15.0 0.00 0.00 0.00 90 1014.0
20260906032004 58 258 6.0 15.0 0.00 0.00 0.00 90 1014.0
20260906031003 58 265 6.0 12.0 0.00 0.00 0.00 90 1014.0
20260906030504 58 267 5.0 10.0 0.00 0.00 0.00 90 1014.0
20260906030004 58 256 7.0 13.0 0.00 0.00 0.00 90 1014.0
20260906025505 58 256 6.0 13.0 0.00 0.00 0.00 90 1014.0
20260906025004 58 264 5.0 10.0 0.00 0.00 0.00 90 1014.0
20260906024504 58 266 7.0 15.0 0.00 0.00 0.00 90 1014.0
20260906024003 58 261 7.0 15.0 0.00 0.00 0.00 90 1014.0
20260906023506 58 269 7.0 12.0 0.00 0.00 0.00 90 1014.0
20260906023003 58 276 7.0 12.0 0.00 0.00 0.00 91 1014.0
20260906022504 58 273 6.0 12.0 0.00 0.00 0.00 91 1013.0
20260906022003 58 272 7.0 15.0 0.00 0.00 0.00 91 1013.0
20260906021504 58 273 6.0 15.0 0.00 0.00 0.00 91 1013.0
20260906020504 58 262 6.0 10.0 0.00 0.00 0.00 91 1013.0
20260906020003 58 263 5.0 10.0 0.00 0.00 0.00 91 1013.0
20260906014504 58 258 6.0 12.0 0.00 0.00 0.00 91 1012.0
20260906013504 58 272 7.0 13.0 0.00 0.00 0.00 91 1012.0
20260906013003 58 262 7.0 13.0 0.00 0.00 0.00 91 1012.0
20260906012505 58 262 7.0 13.0 0.00 0.00 0.00 92 1012.0
20260906012004 58 276 6.0 14.0 0.00 0.00 0.00 92 1012.0
20260906011004 58 266 7.0 11.0 0.00 0.00 0.00 92 1012.0
20260906010504 57 257 6.0 14.0 0.00 0.00 0.00 92 1012.0
20260906010005 57 257 5.0 14.0 0.00 0.00 0.00 92 1012.0
20260906005503 57 267 5.0 10.0 0.00 0.00 0.00 92 1013.0
20260906005004 57 265 5.0 10.0 0.00 0.00 0.00 92 1013.0
20260906004503 57 255 6.0 12.0 0.00 0.00 0.00 92 1013.0
20260906003503 57 261 6.0 10.0 0.00 0.00 0.00 92 1012.0
20260906003004 57 260 5.0 10.0 0.00 0.00 0.00 92 1012.0
20260906002503 57 252 5.0 13.0 0.00 0.00 0.00 92 1012.0
20260906002005 57 252 6.0 13.0 0.00 0.00 0.00 92 1012.0
20260906001505 58 255 5.0 14.0 0.00 0.00 0.00 92 1012.0
20260906001005 58 262 5.0 14.0 0.00 0.00 0.00 92 1011.0
20260906000503 58 262 5.0 11.0 0.00 0.00 0.00 92 1011.0
20260905234504 58 263 6.0 11.0 0.00 0.00 0.00 92 1011.0
20260905234005 58 277 5.0 10.0 0.00 0.00 0.00 92 1011.0
20260905233004 58 277 5.0 11.0 0.00 0.00 0.00 92 1011.0
20260905232004 58 276 5.0 11.0 0.00 0.00 0.00 91 1011.0
20260905231503 58 276 5.0 10.0 0.00 0.00 0.00 91 1011.0
20260905231005 58 267 5.0 14.0 0.00 0.00 0.00 91 1010.0
20260905230005 58 274 5.0 15.0 0.00 0.00 0.00 91 1010.0
20260905225504 58 264 4.0 11.0 0.00 0.00 0.00 92 1009.0
20260905224504 58 277 4.0 12.0 0.00 0.00 0.00 92 1009.0
20260905224005 57 263 2.0 12.0 0.00 0.00 0.00 92 1010.0
20260905223503 57 280 2.0 8.0 0.00 0.00 0.00 91 1010.0
20260905223004 57 300 4.0 8.0 0.00 0.00 0.00 91 1010.0
20260905222503 57 312 4.0 8.0 0.00 0.00 0.00 91 1011.0
20260905222005 57 307 3.0 8.0 0.00 0.00 0.00 90 1011.0
20260905221504 57 309 3.0 7.0 0.00 0.00 0.00 90 1011.0
20260905221005 57 320 4.0 10.0 0.00 0.00 0.00 89 1011.0
20260905215504 57 308 4.0 10.0 0.00 0.00 0.00 89 1010.0
20260905215005 57 289 4.0 16.0 0.00 0.00 0.00 89 1010.0
20260905214504 57 289 4.0 16.0 0.00 0.00 0.00 89 1010.0
20260905214005 57 279 4.0 9.0 0.00 0.00 0.00 88 1009.0
20260905213503 57 256 4.0 10.0 0.00 0.00 0.00 88 1009.0
20260905212504 57 276 5.0 8.0 0.00 0.00 0.00 87 1009.0
20260905212004 57 272 5.0 8.0 0.00 0.00 0.00 87 1009.0
20260905211005 57 253 5.0 12.0 0.00 0.00 0.00 87 1006.9
20260905210004 57 272 6.0 16.0 0.00 0.00 0.00 86 1006.9